contact:dominique.lefevre@mio.osupytheas.fr, maurice.libes@osupytheas.fr, didier.mallarino@osupytheas.fr
Project:EMSO http://www.emso-fr.org/EMSO-France
Depth: 2436.0 m
Title:EMSO Ligure Ouest : Data MII capteur AQUADOPP
Date,Latitude,Longitude,X_East,Y_North,Z_Up,Amplitude_X,Amplitude_Y,Amplitude_Z,Batterie,SoundSpeed,Heading,Pitch,Roll,Pressure,TIS,Speed,Direction
, degrees North, degrees East, m.s-1, m.s-1,m.s-1, 1, 1, 1, Volt, m.s-1, degree, degree, degree, dbar, degree_C, m.s-1, degree
2021-11-06T00:04:03,42.805,6.029,0.039,-0.003,0.012,100.0,100.0,99.0,13.3,1505.2,329.6,-0.8,1.8,2470.705,13.28,0.039,94.4
2021-11-06T00:07:03,42.805,6.029,0.009,-0.012,-0.033,100.0,100.0,100.0,13.3,1505.2,330.9,-0.8,1.9,2470.686,13.28,0.015,143.1
2021-11-06T00:10:03,42.805,6.029,0.006,-0.008,0.004,99.0,100.0,100.0,13.3,1505.2,331.9,-0.7,1.8,2470.684,13.28,0.01,143.1
2021-11-06T00:13:03,42.805,6.029,0.026,0.011,-0.002,100.0,100.0,100.0,13.3,1505.2,331.2,-0.7,1.8,2470.664,13.28,0.028,67.1
2021-11-06T00:16:03,42.805,6.029,0.024,-0.008,-0.006,99.0,103.0,100.0,13.4,1505.2,326.9,-0.7,1.8,2470.68,13.28,0.025,108.4
2021-11-06T00:19:03,42.805,6.029,0.046,-0.011,0.005,99.0,101.0,100.0,13.4,1505.2,324.9,-0.8,1.8,2470.695,13.28,0.047,103.4
2021-11-06T00:22:03,42.805,6.029,0.027,-0.013,-0.009,99.0,100.0,100.0,13.4,1505.2,331.0,-0.7,1.8,2470.643,13.28,0.029,115.7
2021-11-06T00:25:03,42.805,6.029,0.007,-0.007,-0.013,100.0,102.0,100.0,13.4,1505.2,327.6,-0.8,1.9,2470.644,13.28,0.009,135.0
2021-11-06T00:28:03,42.805,6.029,0.014,-0.001,0.018,99.0,100.0,100.0,13.4,1505.2,329.9,-0.7,1.8,2470.635,13.28,0.014,94.1
2021-11-06T00:31:03,42.805,6.029,0.03,0.007,-0.001,100.0,100.0,99.0,13.3,1505.2,327.7,-0.7,1.8,2470.621,13.28,0.03,76.9
2021-11-06T00:34:03,42.805,6.029,0.034,-0.024,-0.025,100.0,100.0,100.0,13.4,1505.2,328.8,-0.8,1.8,2470.65,13.28,0.041,125.2
2021-11-06T00:37:03,42.805,6.029,0.019,0.0,-0.004,101.0,101.0,100.0,13.4,1505.2,331.1,-0.7,1.8,2470.617,13.28,0.019,90.0
2021-11-06T00:40:03,42.805,6.029,0.022,-0.002,-0.013,100.0,100.0,100.0,13.4,1505.2,327.7,-0.7,1.8,2470.618,13.28,0.022,95.2
2021-11-06T00:43:03,42.805,6.029,0.01,-0.005,-0.015,100.0,100.0,100.0,13.3,1505.2,325.9,-0.8,1.8,2470.619,13.28,0.011,116.6
2021-11-06T00:46:03,42.805,6.029,0.021,-0.007,-0.019,100.0,99.0,101.0,13.3,1505.2,326.6,-0.8,1.8,2470.635,13.28,0.022,108.4
2021-11-06T00:49:03,42.805,6.029,0.025,-0.028,-0.036,100.0,98.0,101.0,13.4,1505.2,330.1,-0.7,1.8,2470.622,13.28,0.037,138.2
2021-11-06T00:52:03,42.805,6.029,-0.009,-0.022,-0.039,100.0,102.0,98.0,13.4,1505.2,328.9,-0.7,1.8,2470.643,13.28,0.023,202.2
2021-11-06T00:55:03,42.805,6.029,0.026,-0.02,-0.022,100.0,101.0,99.0,13.3,1505.2,328.9,-0.8,1.8,2470.638,13.28,0.032,127.6
2021-11-06T00:58:03,42.805,6.029,0.046,-0.021,-0.026,101.0,101.0,99.0,13.4,1505.2,329.0,-0.8,1.8,2470.608,13.28,0.05,114.5
2021-11-06T01:04:03,42.805,6.029,0.003,0.016,-0.024,103.0,103.0,103.0,13.4,1505.2,325.3,-0.8,1.8,2470.636,13.28,0.016,10.6
2021-11-06T01:07:03,42.805,6.029,0.035,-0.003,0.018,102.0,102.0,100.0,13.4,1505.2,329.6,-0.8,1.8,2470.647,13.28,0.035,94.9
2021-11-06T01:10:03,42.805,6.029,0.018,0.001,-0.007,103.0,100.0,100.0,13.3,1505.2,327.6,-0.8,1.8,2470.65,13.28,0.018,86.8
2021-11-06T01:13:03,42.805,6.029,0.013,-0.009,-0.043,101.0,100.0,100.0,13.3,1505.2,329.2,-0.7,1.8,2470.607,13.28,0.015,124.7
2021-11-06T01:16:03,42.805,6.029,0.023,-0.019,-0.019,101.0,102.0,99.0,13.3,1505.2,330.0,-0.8,1.8,2470.608,13.28,0.029,129.6
2021-11-06T01:19:03,42.805,6.029,0.02,0.005,0.02,98.0,100.0,101.0,13.4,1505.2,327.5,-0.8,1.8,2470.602,13.28,0.02,76.0
2021-11-06T01:22:03,42.805,6.029,0.012,-0.009,-0.03,99.0,101.0,99.0,13.4,1505.2,325.0,-0.8,1.8,2470.613,13.28,0.015,126.9
2021-11-06T01:25:03,42.805,6.029,0.022,0.003,-0.007,101.0,99.0,100.0,13.4,1505.2,331.3,-0.8,1.8,2470.644,13.28,0.022,82.2
2021-11-06T01:28:03,42.805,6.029,0.031,-0.02,-0.023,99.0,101.0,101.0,13.3,1505.2,329.4,-0.8,1.9,2470.61,13.28,0.036,122.8
2021-11-06T01:31:03,42.805,6.029,0.039,0.003,0.019,101.0,99.0,100.0,13.4,1505.2,331.2,-0.8,1.8,2470.587,13.28,0.039,85.6
2021-11-06T01:34:03,42.805,6.029,0.04,-0.023,0.003,100.0,100.0,100.0,13.3,1505.2,325.7,-0.8,1.8,2470.638,13.28,0.046,119.9
2021-11-06T01:37:03,42.805,6.029,0.015,0.002,-0.008,100.0,100.0,100.0,13.3,1505.2,329.6,-0.7,1.8,2470.597,13.28,0.015,82.4
2021-11-06T01:40:03,42.805,6.029,0.002,-0.012,-0.002,100.0,100.0,100.0,13.4,1505.2,327.5,-0.8,1.9,2470.623,13.28,0.012,170.5
2021-11-06T01:43:03,42.805,6.029,0.024,-0.006,-0.018,100.0,98.0,101.0,13.3,1505.2,329.0,-0.8,1.8,2470.606,13.28,0.024,104.0
2021-11-06T01:46:03,42.805,6.029,0.015,-0.013,-0.017,99.0,100.0,100.0,13.4,1505.2,330.0,-0.7,1.8,2470.606,13.28,0.019,130.9
2021-11-06T01:49:03,42.805,6.029,0.034,0.0,0.001,99.0,100.0,100.0,13.4,1505.2,331.7,-0.8,1.8,2470.613,13.28,0.034,90.0
2021-11-06T01:52:03,42.805,6.029,0.021,-0.022,-0.023,100.0,100.0,100.0,13.4,1505.2,331.3,-0.7,1.8,2470.616,13.28,0.03,136.3
2021-11-06T01:55:03,42.805,6.029,0.012,-0.025,-0.013,99.0,103.0,99.0,13.4,1505.2,331.0,-0.7,1.8,2470.6,13.28,0.027,154.4
2021-11-06T01:58:03,42.805,6.029,0.019,-0.023,-0.029,99.0,100.0,100.0,13.4,1505.2,327.8,-0.8,1.8,2470.608,13.28,0.029,140.4
2021-11-06T02:04:03,42.805,6.029,0.009,-0.018,-0.029,100.0,100.0,100.0,13.4,1505.2,324.9,-0.8,1.8,2470.597,13.28,0.02,153.4
2021-11-06T02:07:03,42.805,6.029,0.028,-0.003,0.009,99.0,101.0,100.0,13.4,1505.2,330.0,-0.7,1.9,2470.592,13.28,0.028,96.1
2021-11-06T02:10:03,42.805,6.029,0.044,-0.027,-0.024,100.0,98.0,100.0,13.4,1505.2,327.0,-0.8,1.8,2470.603,13.28,0.051,121.5
2021-11-06T02:13:03,42.805,6.029,0.052,0.009,0.01,100.0,100.0,100.0,13.4,1505.2,328.5,-0.8,1.8,2470.608,13.28,0.052,80.2
2021-11-06T02:16:03,42.805,6.029,0.016,-0.012,0.012,100.0,101.0,98.0,13.4,1505.2,327.8,-0.7,1.8,2470.639,13.28,0.02,126.9
2021-11-06T02:19:03,42.805,6.029,0.006,0.009,-0.011,101.0,99.0,100.0,13.3,1505.2,326.8,-0.8,1.8,2470.583,13.28,0.01,33.7
2021-11-06T02:22:03,42.805,6.029,0.014,0.027,0.043,100.0,99.0,99.0,13.4,1505.2,325.4,-0.8,1.8,2470.569,13.28,0.03,27.4
2021-11-06T02:25:03,42.805,6.029,0.015,-0.03,-0.076,101.0,100.0,99.0,13.3,1505.2,328.9,-0.8,1.8,2470.604,13.28,0.033,153.4
2021-11-06T02:28:03,42.805,6.029,0.03,-0.01,0.009,98.0,100.0,101.0,13.4,1505.2,330.9,-0.7,1.8,2470.598,13.28,0.031,108.4
2021-11-06T02:31:03,42.805,6.029,0.02,-0.018,0.006,99.0,100.0,100.0,13.3,1505.2,331.2,-0.7,1.8,2470.628,13.28,0.026,132.0
2021-11-06T02:34:03,42.805,6.029,0.035,0.004,0.012,100.0,100.0,99.0,13.4,1505.2,327.4,-0.7,1.8,2470.555,13.28,0.035,83.5
2021-11-06T02:37:03,42.805,6.029,0.027,-0.012,-0.011,100.0,100.0,99.0,13.4,1505.2,327.3,-0.8,1.8,2470.614,13.28,0.029,114.0
2021-11-06T02:40:03,42.805,6.029,0.028,-0.008,-0.006,99.0,102.0,100.0,13.3,1505.2,325.7,-0.7,1.8,2470.606,13.28,0.029,105.9
2021-11-06T02:43:03,42.805,6.029,0.013,0.004,0.012,98.0,102.0,100.0,13.4,1505.2,331.6,-0.8,1.8,2470.61,13.28,0.013,72.9
2021-11-06T02:46:03,42.805,6.029,0.022,-0.007,0.025,98.0,101.0,101.0,13.4,1505.2,325.3,-0.7,1.8,2470.598,13.28,0.023,107.6
2021-11-06T02:49:03,42.805,6.029,0.008,-0.002,-0.006,99.0,100.0,100.0,13.3,1505.2,330.2,-0.8,1.8,2470.616,13.28,0.008,104.0
2021-11-06T02:52:03,42.805,6.029,0.018,-0.016,-0.005,100.0,100.0,99.0,13.4,1505.2,327.9,-0.8,1.8,2470.601,13.28,0.024,131.6
2021-11-06T02:55:03,42.805,6.029,0.022,-0.01,-0.036,100.0,100.0,100.0,13.3,1505.2,330.4,-0.8,1.8,2470.57,13.28,0.024,114.4
2021-11-06T02:58:03,42.805,6.029,0.035,-0.022,-0.022,99.0,100.0,101.0,13.4,1505.2,331.8,-0.8,1.9,2470.56,13.28,0.041,122.2
2021-11-06T03:04:03,42.805,6.029,0.033,0.02,0.027,100.0,100.0,100.0,13.4,1505.2,328.6,-0.8,1.8,2470.613,13.28,0.038,58.8
2021-11-06T03:07:03,42.805,6.029,0.043,-0.019,-0.024,100.0,101.0,100.0,13.3,1505.2,325.5,-0.7,1.8,2470.613,13.28,0.047,113.8
2021-11-06T03:10:03,42.805,6.029,0.027,-0.004,0.005,100.0,100.0,100.0,13.4,1505.2,331.9,-0.7,1.8,2470.636,13.28,0.027,98.4
2021-11-06T03:13:03,42.805,6.029,0.03,-0.01,-0.02,100.0,101.0,99.0,13.4,1505.2,328.9,-0.8,1.8,2470.682,13.28,0.031,108.4
2021-11-06T03:16:03,42.805,6.029,0.03,0.018,0.006,98.0,101.0,102.0,13.3,1505.2,326.7,-0.8,1.9,2470.61,13.28,0.034,59.0
2021-11-06T03:19:03,42.805,6.029,0.011,-0.014,0.001,100.0,100.0,101.0,13.4,1505.2,326.9,-0.8,1.8,2470.587,13.28,0.017,141.8
2021-11-06T03:22:03,42.805,6.029,0.003,-0.009,-0.016,99.0,100.0,100.0,13.3,1505.2,327.4,-0.7,1.8,2470.582,13.28,0.009,161.6
2021-11-06T03:25:03,42.805,6.029,0.034,-0.005,0.012,100.0,100.0,101.0,13.3,1505.2,328.1,-0.7,1.9,2470.608,13.28,0.034,98.4
2021-11-06T03:28:03,42.805,6.029,0.014,-0.017,-0.017,100.0,100.0,100.0,13.3,1505.2,327.6,-0.8,1.8,2470.623,13.28,0.022,140.5
2021-11-06T03:31:03,42.805,6.029,0.049,0.0,-0.001,99.0,101.0,100.0,13.4,1505.2,326.5,-0.8,1.8,2470.595,13.28,0.049,90.0
2021-11-06T03:34:03,42.805,6.029,0.019,-0.002,-0.005,99.0,100.0,100.0,13.4,1505.2,328.4,-0.8,1.8,2470.64,13.28,0.019,96.0
2021-11-06T03:37:03,42.805,6.029,0.034,0.002,0.039,100.0,99.0,101.0,13.4,1505.2,326.6,-0.7,1.8,2470.6,13.28,0.034,86.6
2021-11-06T03:40:03,42.805,6.029,0.025,-0.023,-0.023,100.0,101.0,100.0,13.4,1505.2,329.3,-0.7,1.8,2470.626,13.28,0.033,132.6
2021-11-06T03:43:03,42.805,6.029,0.013,-0.004,-0.027,100.0,100.0,100.0,13.4,1505.2,329.6,-0.8,1.8,2470.641,13.28,0.013,107.1
2021-11-06T03:46:03,42.805,6.029,0.023,-0.005,-0.009,101.0,99.0,100.0,13.4,1505.2,325.6,-0.7,1.8,2470.591,13.28,0.023,102.3
2021-11-06T03:49:03,42.805,6.029,0.029,-0.004,-0.025,101.0,101.0,100.0,13.3,1505.2,330.0,-0.8,1.8,2470.64,13.28,0.029,97.8
2021-11-06T03:52:03,42.805,6.029,0.008,0.021,0.023,100.0,100.0,100.0,13.4,1505.2,326.7,-0.7,1.8,2470.564,13.28,0.022,20.9
2021-11-06T03:55:03,42.805,6.029,0.013,-0.009,-0.023,100.0,100.0,100.0,13.4,1505.2,326.7,-0.7,1.9,2470.616,13.28,0.015,124.7
2021-11-06T03:58:03,42.805,6.029,0.04,-0.018,0.014,101.0,100.0,100.0,13.4,1505.2,330.0,-0.7,1.8,2470.611,13.28,0.043,114.2
2021-11-06T04:04:03,42.805,6.029,0.031,-0.014,0.0,99.0,99.0,100.0,13.3,1505.2,325.4,-0.8,1.8,2470.679,13.28,0.034,114.3
2021-11-06T04:07:03,42.805,6.029,0.027,-0.038,-0.035,100.0,101.0,99.0,13.4,1505.2,329.7,-0.7,1.8,2470.676,13.28,0.046,144.6
2021-11-06T04:10:03,42.805,6.029,0.043,-0.001,0.026,98.0,103.0,102.0,13.4,1505.2,328.2,-0.8,1.8,2470.674,13.28,0.043,91.3
2021-11-06T04:13:03,42.805,6.029,0.028,0.0,0.0,99.0,101.0,100.0,13.3,1505.2,329.1,-0.7,1.8,2470.693,13.28,0.028,90.0
2021-11-06T04:16:03,42.805,6.029,0.013,-0.004,-0.013,101.0,100.0,100.0,13.3,1505.2,327.9,-0.8,1.8,2470.663,13.28,0.013,107.1
2021-11-06T04:19:03,42.805,6.029,0.013,0.004,-0.032,100.0,101.0,100.0,13.3,1505.2,326.5,-0.7,1.8,2470.684,13.28,0.013,72.9
2021-11-06T04:22:03,42.805,6.029,0.023,-0.034,-0.042,100.0,100.0,100.0,13.4,1505.2,331.4,-0.8,1.8,2470.691,13.28,0.041,145.9
2021-11-06T04:25:03,42.805,6.029,0.039,-0.014,-0.029,100.0,101.0,100.0,13.4,1505.2,331.5,-0.7,1.8,2470.681,13.28,0.041,109.7
2021-11-06T04:28:03,42.805,6.029,0.031,0.005,0.025,99.0,102.0,100.0,13.3,1505.2,325.9,-0.7,1.8,2470.678,13.28,0.031,80.8
2021-11-06T04:31:03,42.805,6.029,0.009,0.01,-0.007,100.0,98.0,101.0,13.3,1505.2,329.3,-0.8,1.9,2470.708,13.28,0.013,42.0
2021-11-06T04:34:03,42.805,6.029,0.036,0.009,-0.001,99.0,101.0,100.0,13.4,1505.2,327.9,-0.8,1.8,2470.651,13.28,0.037,76.0
2021-11-06T04:37:03,42.805,6.029,0.035,0.0,0.016,100.0,101.0,99.0,13.4,1505.2,326.5,-0.7,1.8,2470.668,13.28,0.035,90.0
2021-11-06T04:40:03,42.805,6.029,0.029,-0.013,-0.019,100.0,101.0,99.0,13.4,1505.2,329.2,-0.7,1.8,2470.663,13.28,0.031,114.1
2021-11-06T04:43:03,42.805,6.029,0.047,-0.002,0.022,99.0,102.0,100.0,13.4,1505.2,328.9,-0.8,1.8,2470.692,13.28,0.047,92.4
2021-11-06T04:46:03,42.805,6.029,0.007,-0.015,-0.017,98.0,102.0,100.0,13.4,1505.2,328.0,-0.8,1.8,2470.704,13.28,0.016,155.0
2021-11-06T04:49:03,42.805,6.029,0.044,-0.028,-0.04,99.0,100.0,100.0,13.3,1505.2,325.1,-0.7,1.8,2470.662,13.28,0.052,122.5
2021-11-06T04:52:03,42.805,6.029,0.04,-0.005,0.018,99.0,101.0,100.0,13.3,1505.2,327.6,-0.8,1.8,2470.693,13.28,0.04,97.1
2021-11-06T04:55:03,42.805,6.029,0.051,0.023,0.046,99.0,101.0,100.0,13.4,1505.2,328.3,-0.8,1.8,2470.701,13.28,0.055,65.7
2021-11-06T04:58:03,42.805,6.029,0.015,-0.009,0.004,100.0,101.0,100.0,13.3,1505.2,329.0,-0.7,1.8,2470.724,13.28,0.017,121.0
2021-11-06T05:04:03,42.805,6.029,-0.02,0.029,0.033,99.0,100.0,100.0,13.4,1505.2,326.7,-0.8,1.8,2470.786,13.28,0.035,325.4
2021-11-06T05:07:03,42.805,6.029,0.019,-0.001,-0.013,101.0,100.0,99.0,13.4,1505.2,330.1,-0.8,1.8,2470.72,13.28,0.019,93.0
2021-11-06T05:10:03,42.805,6.029,0.013,-0.007,0.01,99.0,101.0,100.0,13.4,1505.2,329.2,-0.8,1.8,2470.768,13.28,0.014,118.3
2021-11-06T05:13:03,42.805,6.029,0.022,-0.002,-0.013,100.0,100.0,100.0,13.4,1505.2,326.8,-0.8,1.8,2470.739,13.28,0.022,95.2
2021-11-06T05:16:03,42.805,6.029,0.051,-0.02,-0.018,100.0,100.0,100.0,13.4,1505.2,329.3,-0.7,1.8,2470.777,13.28,0.054,111.4
2021-11-06T05:19:03,42.805,6.029,0.002,-0.01,-0.032,99.0,101.0,100.0,13.4,1505.2,325.7,-0.8,1.8,2470.753,13.28,0.01,168.7
2021-11-06T05:22:03,42.805,6.029,0.025,0.003,-0.015,100.0,100.0,100.0,13.3,1505.2,330.3,-0.7,1.8,2470.746,13.28,0.025,83.2
2021-11-06T05:25:03,42.805,6.029,0.011,-0.015,-0.008,99.0,101.0,99.0,13.4,1505.2,329.8,-0.7,1.8,2470.756,13.28,0.018,143.7
2021-11-06T05:28:03,42.805,6.029,0.029,-0.019,0.012,100.0,101.0,99.0,13.3,1505.2,326.7,-0.8,1.8,2470.741,13.28,0.034,123.2
2021-11-06T05:31:03,42.805,6.029,0.034,-0.022,-0.01,100.0,99.0,100.0,13.3,1505.2,327.1,-0.7,1.8,2470.736,13.28,0.04,122.9
2021-11-06T05:34:03,42.805,6.029,0.016,-0.013,-0.021,100.0,100.0,99.0,13.3,1505.2,328.2,-0.8,1.8,2470.764,13.28,0.02,129.1
2021-11-06T05:37:03,42.805,6.029,0.006,0.022,-0.004,100.0,100.0,100.0,13.3,1505.2,328.3,-0.7,1.8,2470.767,13.28,0.022,15.3
2021-11-06T05:40:03,42.805,6.029,0.01,0.016,0.024,100.0,101.0,99.0,13.4,1505.2,331.3,-0.7,1.8,2470.757,13.28,0.018,32.0
2021-11-06T05:43:03,42.805,6.029,0.031,-0.008,-0.025,99.0,101.0,99.0,13.3,1505.2,325.8,-0.8,1.8,2470.723,13.28,0.032,104.5
2021-11-06T05:46:03,42.805,6.029,0.04,-0.001,0.016,99.0,101.0,99.0,13.4,1505.2,330.0,-0.8,1.9,2470.707,13.28,0.04,91.4
2021-11-06T05:49:03,42.805,6.029,0.033,-0.024,-0.028,99.0,102.0,100.0,13.4,1505.2,327.8,-0.7,1.8,2470.78,13.28,0.04,126.0
2021-11-06T05:52:03,42.805,6.029,0.028,-0.014,0.022,99.0,101.0,101.0,13.3,1505.2,328.9,-0.8,1.8,2470.755,13.28,0.031,116.6
2021-11-06T05:55:03,42.805,6.029,0.004,-0.023,0.002,100.0,101.0,100.0,13.3,1505.2,329.2,-0.7,1.8,2470.768,13.28,0.023,170.1
2021-11-06T05:58:03,42.805,6.029,0.014,0.002,0.003,99.0,100.0,100.0,13.3,1505.2,331.5,-0.8,1.8,2470.751,13.28,0.014,81.9
2021-11-06T06:04:03,42.805,6.029,0.005,-0.01,-0.02,99.0,100.0,100.0,13.4,1505.2,329.6,-0.8,1.8,2470.783,13.28,0.011,153.4
2021-11-06T06:07:03,42.805,6.029,0.014,0.011,0.004,100.0,100.0,99.0,13.3,1505.2,329.2,-0.7,1.8,2470.801,13.28,0.017,51.8
2021-11-06T06:10:03,42.805,6.029,0.017,-0.012,-0.01,99.0,100.0,100.0,13.4,1505.2,331.3,-0.8,1.8,2470.82,13.28,0.02,125.2
2021-11-06T06:13:03,42.805,6.029,0.031,0.003,0.018,100.0,100.0,100.0,13.4,1505.2,327.9,-0.7,1.8,2470.803,13.28,0.031,84.5
2021-11-06T06:16:03,42.805,6.029,0.029,-0.007,-0.015,101.0,101.0,99.0,13.4,1505.2,328.6,-0.7,1.8,2470.821,13.28,0.029,103.6
2021-11-06T06:19:03,42.805,6.029,0.016,-0.003,-0.018,99.0,101.0,100.0,13.4,1505.2,328.7,-0.8,1.8,2470.817,13.28,0.016,100.6
2021-11-06T06:22:03,42.805,6.029,0.013,0.006,0.003,102.0,101.0,98.0,13.4,1505.2,327.2,-0.7,1.8,2470.826,13.28,0.014,65.2
2021-11-06T06:25:03,42.805,6.029,0.039,-0.005,0.021,99.0,101.0,99.0,13.3,1505.2,327.9,-0.7,1.8,2470.801,13.28,0.039,97.3
2021-11-06T06:28:03,42.805,6.029,0.008,-0.008,0.014,100.0,100.0,100.0,13.4,1505.2,325.6,-0.8,1.8,2470.783,13.28,0.011,135.0
2021-11-06T06:31:03,42.805,6.029,0.039,-0.027,-0.021,100.0,100.0,99.0,13.3,1505.2,327.4,-0.8,1.9,2470.812,13.28,0.047,124.7
2021-11-06T06:34:03,42.805,6.029,0.03,-0.02,0.0,99.0,102.0,100.0,13.4,1505.2,330.3,-0.8,1.8,2470.797,13.28,0.036,123.7
2021-11-06T06:37:03,42.805,6.029,0.015,0.01,-0.011,101.0,99.0,100.0,13.4,1505.2,327.6,-0.7,1.8,2470.819,13.28,0.018,56.3
2021-11-06T06:40:03,42.805,6.029,0.015,0.005,-0.003,99.0,101.0,100.0,13.4,1505.2,330.4,-0.8,1.8,2470.842,13.28,0.015,71.6
2021-11-06T06:43:03,42.805,6.029,0.044,-0.02,-0.007,100.0,100.0,100.0,13.3,1505.2,329.3,-0.8,1.9,2470.801,13.28,0.048,114.4
2021-11-06T06:46:03,42.805,6.029,0.019,-0.002,0.007,100.0,101.0,100.0,13.4,1505.2,328.9,-0.7,1.8,2470.799,13.28,0.019,96.0
2021-11-06T06:49:03,42.805,6.029,0.042,0.006,0.017,100.0,100.0,99.0,13.4,1505.2,330.7,-0.7,1.9,2470.799,13.28,0.042,81.9
2021-11-06T06:52:03,42.805,6.029,0.018,-0.002,0.003,100.0,102.0,98.0,13.3,1505.2,327.2,-0.8,1.8,2470.812,13.28,0.018,96.3
2021-11-06T06:55:03,42.805,6.029,0.043,0.0,-0.006,100.0,101.0,99.0,13.4,1505.2,327.9,-0.8,1.8,2470.809,13.28,0.043,90.0
2021-11-06T06:58:03,42.805,6.029,0.037,-0.013,0.015,100.0,101.0,99.0,13.3,1505.2,327.0,-0.8,1.8,2470.818,13.28,0.039,109.4
2021-11-06T07:04:03,42.805,6.029,0.013,-0.012,-0.007,100.0,100.0,100.0,13.3,1505.2,331.2,-0.8,1.8,2470.83,13.28,0.017,132.7
2021-11-06T07:07:03,42.805,6.029,0.033,-0.023,-0.04,100.0,101.0,99.0,13.3,1505.2,329.7,-0.7,1.8,2470.863,13.28,0.04,124.9
2021-11-06T07:10:03,42.805,6.029,0.046,-0.027,-0.022,100.0,100.0,100.0,13.4,1505.2,325.6,-0.8,1.8,2470.865,13.28,0.053,120.4
2021-11-06T07:13:03,42.805,6.029,0.05,0.001,0.025,98.0,100.0,100.0,13.4,1505.2,326.8,-0.7,1.8,2470.841,13.28,0.05,88.9
2021-11-06T07:16:03,42.805,6.029,0.024,0.002,-0.002,100.0,101.0,100.0,13.3,1505.2,331.5,-0.8,1.8,2470.822,13.28,0.024,85.2
2021-11-06T07:19:03,42.805,6.029,0.02,-0.029,-0.013,99.0,100.0,100.0,13.4,1505.2,325.5,-0.8,1.8,2470.821,13.28,0.035,145.4
2021-11-06T07:22:03,42.805,6.029,0.031,-0.01,0.021,101.0,100.0,99.0,13.4,1505.2,329.9,-0.7,1.8,2470.847,13.28,0.032,107.9
2021-11-06T07:25:03,42.805,6.029,0.031,-0.004,-0.001,100.0,99.0,100.0,13.3,1505.2,327.5,-0.8,1.8,2470.837,13.28,0.031,97.3
2021-11-06T07:28:03,42.805,6.029,0.007,0.017,0.019,99.0,100.0,100.0,13.4,1505.2,332.0,-0.7,1.8,2470.847,13.28,0.018,22.4
2021-11-06T07:31:03,42.805,6.029,0.025,-0.019,-0.033,99.0,101.0,100.0,13.3,1505.2,330.4,-0.8,1.8,2470.833,13.28,0.031,127.2
2021-11-06T07:34:03,42.805,6.029,0.02,0.002,0.008,100.0,101.0,100.0,13.4,1505.2,328.9,-0.8,1.8,2470.817,13.28,0.02,84.3
2021-11-06T07:37:03,42.805,6.029,0.014,-0.01,0.002,99.0,100.0,100.0,13.4,1505.2,330.8,-0.8,1.8,2470.868,13.28,0.017,125.5
2021-11-06T07:40:03,42.805,6.029,0.042,-0.006,0.007,101.0,100.0,99.0,13.4,1505.2,326.6,-0.8,1.8,2470.841,13.28,0.042,98.1
2021-11-06T07:43:03,42.805,6.029,0.029,-0.009,0.001,98.0,100.0,100.0,13.4,1505.2,326.3,-0.8,1.8,2470.85,13.28,0.03,107.2
2021-11-06T07:46:03,42.805,6.029,0.039,-0.002,0.018,99.0,101.0,100.0,13.4,1505.2,327.7,-0.8,1.8,2470.863,13.28,0.039,92.9
2021-11-06T07:49:03,42.805,6.029,0.0,-0.004,-0.019,101.0,100.0,99.0,13.4,1505.2,329.4,-0.7,1.8,2470.833,13.28,0.004,180.0
2021-11-06T07:52:03,42.805,6.029,0.027,0.006,0.008,99.0,101.0,100.0,13.3,1505.2,331.8,-0.7,1.8,2470.851,13.28,0.027,77.5
2021-11-06T07:55:03,42.805,6.029,0.042,-0.012,0.005,100.0,100.0,99.0,13.4,1505.2,326.7,-0.8,1.8,2470.843,13.28,0.043,105.9
2021-11-06T07:58:03,42.805,6.029,0.011,-0.001,0.0,98.0,100.0,101.0,13.4,1505.2,326.8,-0.8,1.8,2470.837,13.28,0.011,95.2
2021-11-06T08:04:03,42.805,6.029,0.035,-0.017,-0.036,100.0,101.0,100.0,13.3,1505.2,328.8,-0.7,1.8,2470.848,13.28,0.038,115.9
2021-11-06T08:07:03,42.805,6.029,0.047,-0.018,-0.002,100.0,99.0,100.0,13.4,1505.2,330.1,-0.8,1.8,2470.893,13.28,0.05,111.0
2021-11-06T08:10:03,42.805,6.029,0.027,-0.016,0.003,100.0,100.0,99.0,13.3,1505.2,330.7,-0.8,1.8,2470.879,13.28,0.031,120.7
2021-11-06T08:13:03,42.805,6.029,0.038,-0.02,-0.032,101.0,100.0,100.0,13.4,1505.2,327.6,-0.8,1.8,2470.869,13.28,0.042,117.8
2021-11-06T08:16:03,42.805,6.029,0.024,-0.004,0.015,101.0,99.0,99.0,13.4,1505.2,330.3,-0.8,1.8,2470.842,13.28,0.024,99.5
2021-11-06T08:19:03,42.805,6.029,0.021,0.0,-0.001,102.0,100.0,100.0,13.4,1505.2,327.5,-0.8,1.8,2470.842,13.28,0.021,90.0
2021-11-06T08:22:03,42.805,6.029,0.048,-0.006,0.03,99.0,100.0,100.0,13.3,1505.2,328.2,-0.8,1.8,2470.856,13.28,0.048,97.1
2021-11-06T08:25:03,42.805,6.029,0.04,-0.006,0.035,99.0,101.0,99.0,13.3,1505.2,329.4,-0.8,1.8,2470.84,13.28,0.04,98.5
2021-11-06T08:28:03,42.805,6.029,0.047,-0.024,0.0,100.0,100.0,100.0,13.4,1505.2,331.0,-0.7,1.8,2470.846,13.28,0.052,117.0
2021-11-06T08:31:03,42.805,6.029,0.034,-0.003,0.019,99.0,101.0,100.0,13.4,1505.2,325.5,-0.7,1.8,2470.826,13.28,0.034,95.0
2021-11-06T08:34:03,42.805,6.029,0.014,-0.016,-0.054,101.0,100.0,99.0,13.3,1505.2,326.5,-0.7,1.9,2470.867,13.28,0.021,138.8
2021-11-06T08:37:03,42.805,6.029,0.038,-0.029,-0.032,100.0,100.0,101.0,13.3,1505.2,330.5,-0.8,1.8,2470.865,13.28,0.047,127.3
2021-11-06T08:40:03,42.805,6.029,0.041,-0.002,0.022,100.0,100.0,100.0,13.3,1505.2,325.6,-0.7,1.8,2470.821,13.28,0.041,92.8
2021-11-06T08:43:03,42.805,6.029,0.052,-0.026,-0.003,99.0,101.0,100.0,13.4,1505.2,328.2,-0.8,1.8,2470.842,13.28,0.058,116.6
2021-11-06T08:46:03,42.805,6.029,0.004,0.017,0.025,99.0,100.0,101.0,13.4,1505.2,331.2,-0.8,1.8,2470.824,13.28,0.017,13.2
2021-11-06T08:49:03,42.805,6.029,0.029,-0.007,0.008,99.0,100.0,100.0,13.3,1505.2,331.2,-0.8,1.8,2470.826,13.28,0.029,103.6
2021-11-06T08:52:03,42.805,6.029,0.038,-0.009,0.015,99.0,102.0,101.0,13.3,1505.2,328.2,-0.8,1.8,2470.842,13.28,0.039,103.3
2021-11-06T08:55:03,42.805,6.029,0.034,-0.002,-0.014,99.0,99.0,101.0,13.4,1505.2,329.4,-0.8,1.8,2470.853,13.28,0.034,93.4
2021-11-06T08:58:03,42.805,6.029,0.017,0.003,0.0,100.0,99.0,100.0,13.4,1505.2,329.0,-0.7,1.8,2470.843,13.28,0.017,80.0
2021-11-06T09:04:03,42.805,6.029,0.031,0.008,0.011,100.0,100.0,100.0,13.4,1505.2,326.9,-0.7,1.8,2470.901,13.28,0.032,75.5
2021-11-06T09:07:03,42.805,6.029,0.007,0.006,0.017,100.0,100.0,100.0,13.4,1505.2,326.8,-0.7,1.8,2470.837,13.28,0.009,49.4
2021-11-06T09:10:03,42.805,6.029,0.034,-0.004,0.013,101.0,99.0,99.0,13.4,1505.2,329.5,-0.8,1.8,2470.841,13.28,0.034,96.7
2021-11-06T09:13:03,42.805,6.029,0.017,0.002,0.008,100.0,100.0,100.0,13.4,1505.2,324.8,-0.8,1.8,2470.841,13.28,0.017,83.3
2021-11-06T09:16:03,42.805,6.029,0.026,0.003,-0.018,100.0,101.0,100.0,13.4,1505.2,329.1,-0.7,1.8,2470.844,13.28,0.026,83.4
2021-11-06T09:19:03,42.805,6.029,0.034,0.002,-0.011,101.0,101.0,99.0,13.4,1505.2,329.9,-0.7,1.8,2470.833,13.28,0.034,86.6
2021-11-06T09:22:03,42.805,6.029,0.059,0.0,0.018,99.0,101.0,100.0,13.4,1505.2,329.5,-0.7,1.8,2470.867,13.28,0.058,90.0
2021-11-06T09:25:03,42.805,6.029,0.012,-0.006,-0.016,100.0,101.0,99.0,13.4,1505.2,329.7,-0.7,1.8,2470.848,13.28,0.013,116.6
2021-11-06T09:28:03,42.805,6.029,-0.01,0.001,-0.017,100.0,100.0,100.0,13.3,1505.2,330.0,-0.8,1.8,2470.783,13.28,0.01,275.7
2021-11-06T09:31:03,42.805,6.029,0.011,0.0,-0.01,100.0,101.0,100.0,13.3,1505.2,326.3,-0.7,1.8,2470.823,13.28,0.011,90.0
2021-11-06T09:34:03,42.805,6.029,0.019,-0.009,-0.013,101.0,100.0,100.0,13.4,1505.2,327.7,-0.8,1.8,2470.765,13.28,0.021,115.3
2021-11-06T09:37:03,42.805,6.029,0.033,-0.024,-0.027,99.0,100.0,100.0,13.3,1505.2,327.3,-0.8,1.8,2470.812,13.28,0.04,126.0
2021-11-06T09:40:03,42.805,6.029,0.033,-0.007,-0.018,99.0,100.0,100.0,13.4,1505.2,331.6,-0.8,1.8,2470.807,13.28,0.033,102.0
2021-11-06T09:43:03,42.805,6.029,0.053,-0.017,-0.022,100.0,100.0,100.0,13.4,1505.2,328.6,-0.8,1.8,2470.821,13.28,0.055,107.8
2021-11-06T09:46:03,42.805,6.029,0.032,-0.004,-0.009,99.0,101.0,100.0,13.4,1505.2,329.0,-0.8,1.8,2470.802,13.28,0.032,97.1
2021-11-06T09:49:03,42.805,6.029,0.005,-0.016,-0.016,100.0,100.0,99.0,13.4,1505.2,330.3,-0.8,1.8,2470.768,13.28,0.016,162.6
2021-11-06T09:52:03,42.805,6.029,0.031,0.01,0.032,100.0,101.0,99.0,13.4,1505.2,325.4,-0.7,1.8,2470.758,13.28,0.032,72.1
2021-11-06T09:55:03,42.805,6.029,0.021,-0.004,-0.008,100.0,100.0,100.0,13.4,1505.2,328.5,-0.8,1.8,2470.783,13.28,0.021,100.8
2021-11-06T09:58:03,42.805,6.029,0.002,0.008,-0.009,101.0,101.0,99.0,13.3,1505.2,328.7,-0.7,1.8,2470.789,13.28,0.008,14.0
2021-11-06T10:04:03,42.805,6.029,-0.006,-0.011,-0.025,100.0,101.0,100.0,13.4,1505.2,327.9,-0.7,1.8,2470.824,13.28,0.012,208.6